| time (UTC) | temp F | wind direction | speed MPH | gust MPH | rain 1hr in | rain 24hr in | rain mn in | humidity % | barometer mb |
| 20260506210121 | 77 | 18 | 3.0 | 7.0 | 0.00 | 0.00 | 0.00 | 87 | 1014.8 |
| 20260506210003 | 77 | 78 | 3.0 | 7.0 | 0.00 | 0.00 | 0.00 | 87 | 1014.9 |
| 20260506204559 | 78 | 4 | 3.0 | 7.0 | 0.00 | 0.00 | 0.00 | 87 | 1014.8 |
| 20260506203103 | 79 | 5 | 2.0 | 6.0 | 0.00 | 0.00 | 0.00 | 86 | 1014.6 |
| 20260506201600 | 80 | 24 | 1.0 | 4.0 | 0.00 | 0.00 | 0.00 | 85 | 1014.5 |
| 20260506200142 | 81 | 11 | 1.0 | 4.0 | 0.00 | 0.00 | 0.00 | 84 | 1014.6 |
| 20260506200001 | 81 | 11 | 2.0 | 4.0 | 0.00 | 0.00 | 0.00 | 84 | 1014.6 |
| 20260506194612 | 81 | 68 | 3.0 | 7.0 | 0.00 | 0.00 | 0.00 | 83 | 1014.6 |
| 20260506193059 | 82 | 70 | 3.0 | 6.0 | 0.00 | 0.00 | 0.00 | 81 | 1014.7 |
| 20260506191601 | 82 | 73 | 3.0 | 9.0 | 0.00 | 0.00 | 0.00 | 80 | 1014.8 |
| 20260506190058 | 83 | 65 | 4.0 | 8.0 | 0.00 | 0.00 | 0.00 | 77 | 1014.7 |
| 20260506190003 | 83 | 105 | 3.0 | 7.0 | 0.00 | 0.00 | 0.00 | 77 | 1014.7 |
| 20260506184559 | 84 | 76 | 1.0 | 6.0 | 0.00 | 0.00 | 0.00 | 78 | 1014.7 |
| 20260506183059 | 84 | 71 | 3.0 | 8.0 | 0.00 | 0.00 | 0.00 | 75 | 1014.9 |
| 20260506181559 | 84 | 50 | 3.0 | 7.0 | 0.00 | 0.00 | 0.00 | 75 | 1014.9 |
| 20260506180106 | 84 | 79 | 2.0 | 6.0 | 0.00 | 0.00 | 0.00 | 75 | 1015.0 |
| 20260506180002 | 84 | 56 | 2.0 | 6.0 | 0.00 | 0.00 | 0.00 | 76 | 1015.0 |
| 20260506174601 | 84 | 7 | 2.0 | 5.0 | 0.00 | 0.00 | 0.00 | 76 | 1015.1 |
| 20260506173123 | 85 | 1 | 1.0 | 3.0 | 0.00 | 0.00 | 0.00 | 76 | 1015.3 |
| 20260506171603 | 84 | 359 | 2.0 | 4.0 | 0.00 | 0.00 | 0.00 | 76 | 1015.5 |
| 20260506170059 | 84 | 329 | 1.0 | 6.0 | 0.00 | 0.00 | 0.00 | 77 | 1015.6 |
| 20260506170002 | 84 | 329 | 1.0 | 6.0 | 0.00 | 0.00 | 0.00 | 77 | 1015.7 |
| 20260506164559 | 83 | 18 | 1.0 | 5.0 | 0.00 | 0.00 | 0.00 | 77 | 1016.0 |
| 20260506163107 | 83 | 49 | 3.0 | 6.0 | 0.00 | 0.00 | 0.00 | 78 | 1016.3 |
| 20260506161600 | 82 | 26 | 3.0 | 5.0 | 0.00 | 0.00 | 0.00 | 78 | 1016.6 |
| 20260506160108 | 82 | 27 | 2.0 | 5.0 | 0.00 | 0.00 | 0.00 | 79 | 1016.8 |
| 20260506160005 | 82 | 24 | 1.0 | 5.0 | 0.00 | 0.00 | 0.00 | 80 | 1016.9 |
| 20260506154600 | 81 | 53 | 1.0 | 5.0 | 0.00 | 0.00 | 0.00 | 79 | 1017.2 |
| 20260506153059 | 81 | 1 | 2.0 | 5.0 | 0.00 | 0.00 | 0.00 | 80 | 1017.5 |
| 20260506151559 | 80 | 67 | 3.0 | 5.0 | 0.00 | 0.00 | 0.00 | 81 | 1017.7 |
| 20260506150104 | 79 | 23 | 3.0 | 6.0 | 0.00 | 0.00 | 0.00 | 82 | 1018.0 |
| 20260506150005 | 79 | 23 | 2.0 | 5.0 | 0.00 | 0.00 | 0.00 | 82 | 1018.0 |
| 20260506144601 | 79 | 104 | 2.0 | 5.0 | 0.00 | 0.00 | 0.00 | 82 | 1018.5 |
| 20260506143059 | 78 | 77 | 3.0 | 6.0 | 0.00 | 0.00 | 0.00 | 83 | 1018.7 |
| 20260506141558 | 78 | 51 | 3.0 | 6.0 | 0.00 | 0.00 | 0.00 | 84 | 1019.1 |
| 20260506140100 | 77 | 35 | 3.0 | 6.0 | 0.00 | 0.00 | 0.00 | 84 | 1019.3 |
| 20260506140001 | 77 | 95 | 3.0 | 6.0 | 0.00 | 0.00 | 0.00 | 84 | 1019.3 |
| 20260506134619 | 77 | 31 | 2.0 | 5.0 | 0.00 | 0.00 | 0.00 | 85 | 1019.5 |
| 20260506133059 | 76 | 62 | 2.0 | 5.0 | 0.00 | 0.00 | 0.00 | 86 | 1019.6 |
| 20260506131611 | 74 | 59 | 1.0 | 5.0 | 0.00 | 0.00 | 0.00 | 87 | 1019.8 |
| 20260506130059 | 73 | 41 | 1.0 | 6.0 | 0.00 | 0.00 | 0.00 | 88 | 1019.8 |
| 20260506130002 | 73 | 49 | 1.0 | 6.0 | 0.00 | 0.00 | 0.00 | 88 | 1019.8 |
| 20260506124605 | 72 | 48 | 2.0 | 4.0 | 0.00 | 0.00 | 0.00 | 90 | 1019.8 |
| 20260506123059 | 70 | 58 | 2.0 | 5.0 | 0.00 | 0.00 | 0.00 | 92 | 1019.9 |
| 20260506121607 | 69 | 15 | 2.0 | 5.0 | 0.00 | 0.00 | 0.00 | 94 | 1019.9 |
| 20260506120004 | 68 | 113 | 1.0 | 3.0 | 0.00 | 0.00 | 0.00 | 97 | 1019.8 |
| 20260506114558 | 67 | 134 | 1.0 | 3.0 | 0.00 | 0.00 | 0.00 | 97 | 1019.8 |
| 20260506113059 | 66 | 271 | 0.0 | 1.0 | 0.00 | 0.00 | 0.00 | 97 | 1019.6 |
| 20260506111613 | 66 | 271 | 0.0 | 2.0 | 0.00 | 0.00 | 0.00 | 97 | 1019.4 |
| 20260506110059 | 65 | 272 | 1.0 | 2.0 | 0.00 | 0.00 | 0.00 | 97 | 1019.4 |
| 20260506110009 | 65 | 272 | 0.0 | 2.0 | 0.00 | 0.00 | 0.00 | 96 | 1019.4 |
| 20260506104605 | 65 | 272 | 0.0 | 3.0 | 0.00 | 0.00 | 0.00 | 96 | 1019.3 |
| 20260506103106 | 65 | 309 | 0.0 | 0.0 | 0.00 | 0.00 | 0.00 | 96 | 1019.2 |
| 20260506101558 | 65 | 252 | 0.0 | 0.0 | 0.00 | 0.00 | 0.00 | 96 | 1019.1 |
| 20260506100104 | 65 | 254 | 0.0 | 0.0 | 0.00 | 0.00 | 0.00 | 96 | 1018.8 |
| 20260506100001 | 65 | 254 | 0.0 | 0.0 | 0.00 | 0.00 | 0.00 | 96 | 1018.8 |
| 20260506094559 | 65 | 253 | 0.0 | 0.0 | 0.00 | 0.00 | 0.00 | 96 | 1018.7 |
| 20260506093100 | 64 | 252 | 0.0 | 0.0 | 0.00 | 0.00 | 0.00 | 96 | 1018.6 |
| 20260506091559 | 64 | 252 | 0.0 | 0.0 | 0.00 | 0.00 | 0.00 | 96 | 1018.5 |
| 20260506090058 | 64 | 252 | 0.0 | 2.0 | 0.00 | 0.00 | 0.00 | 96 | 1018.3 |
| 20260506090006 | 64 | 252 | 0.0 | 2.0 | 0.00 | 0.00 | 0.00 | 96 | 1018.4 |
| 20260506084605 | 64 | 252 | 1.0 | 2.0 | 0.00 | 0.00 | 0.00 | 96 | 1018.3 |
| 20260506083116 | 64 | 251 | 0.0 | 0.0 | 0.00 | 0.00 | 0.00 | 96 | 1018.1 |
| 20260506081559 | 64 | 251 | 0.0 | 0.0 | 0.00 | 0.00 | 0.00 | 96 | 1018.2 |
| 20260506080103 | 64 | 251 | 0.0 | 0.0 | 0.00 | 0.00 | 0.00 | 95 | 1018.0 |
| 20260506073059 | 64 | 251 | 0.0 | 0.0 | 0.00 | 0.00 | 0.00 | 95 | 1018.0 |
| 20260506071559 | 64 | 251 | 0.0 | 0.0 | 0.00 | 0.00 | 0.00 | 95 | 1018.0 |
| 20260506070125 | 64 | 251 | 0.0 | 0.0 | 0.00 | 0.00 | 0.00 | 95 | 1017.9 |
| 20260506061559 | 65 | 251 | 0.0 | 0.0 | 0.00 | 0.00 | 0.00 | 95 | 1017.7 |
| 20260506044601 | 66 | 251 | 0.0 | 0.0 | 0.00 | 0.00 | 0.00 | 94 | 1017.8 |
| 20260506043059 | 66 | 251 | 0.0 | 0.0 | 0.00 | 0.00 | 0.00 | 94 | 1018.0 |
| 20260506041611 | 66 | 251 | 0.0 | 0.0 | 0.00 | 0.00 | 0.00 | 94 | 1017.9 |
| 20260506040100 | 66 | 251 | 0.0 | 1.0 | 0.00 | 0.00 | 0.00 | 94 | 1018.0 |
| 20260506040002 | 66 | 251 | 0.0 | 1.0 | 0.00 | 0.00 | 0.00 | 94 | 1018.0 |
| 20260506034603 | 66 | 251 | 0.0 | 0.0 | 0.00 | 0.00 | 0.00 | 94 | 1018.1 |
| 20260506033058 | 67 | 251 | 0.0 | 0.0 | 0.00 | 0.00 | 0.00 | 94 | 1018.1 |
| 20260506031601 | 67 | 251 | 0.0 | 1.0 | 0.00 | 0.00 | 0.00 | 93 | 1018.1 |
| 20260506030059 | 67 | 251 | 0.0 | 0.0 | 0.00 | 0.00 | 0.00 | 93 | 1018.1 |
| 20260506030003 | 67 | 251 | 0.0 | 0.0 | 0.00 | 0.00 | 0.00 | 93 | 1018.1 |
| 20260506024606 | 67 | 251 | 0.0 | 0.0 | 0.00 | 0.00 | 0.00 | 93 | 1018.2 |
| 20260506023057 | 67 | 251 | 0.0 | 0.0 | 0.00 | 0.00 | 0.00 | 93 | 1018.3 |
| 20260506021559 | 68 | 251 | 0.0 | 2.0 | 0.00 | 0.00 | 0.00 | 93 | 1018.3 |
| 20260506020110 | 68 | 251 | 0.0 | 0.0 | 0.00 | 0.00 | 0.00 | 93 | 1018.3 |
| 20260506020001 | 68 | 251 | 0.0 | 0.0 | 0.00 | 0.00 | 0.00 | 93 | 1018.3 |
| 20260506014612 | 68 | 251 | 0.0 | 1.0 | 0.00 | 0.00 | 0.00 | 93 | 1018.4 |
| 20260506013058 | 68 | 251 | 0.0 | 1.0 | 0.00 | 0.00 | 0.00 | 93 | 1018.4 |
| 20260506011623 | 68 | 251 | 0.0 | 0.0 | 0.00 | 0.00 | 0.00 | 92 | 1018.4 |
| 20260506010058 | 69 | 251 | 0.0 | 2.0 | 0.00 | 0.00 | 0.00 | 92 | 1018.2 |
| 20260506010001 | 69 | 251 | 0.0 | 2.0 | 0.00 | 0.00 | 0.00 | 92 | 1018.2 |
| 20260506004605 | 69 | 251 | 0.0 | 0.0 | 0.00 | 0.00 | 0.00 | 92 | 1018.4 |
| 20260506003058 | 69 | 251 | 0.0 | 1.0 | 0.00 | 0.00 | 0.00 | 92 | 1018.3 |
| 20260506001604 | 69 | 251 | 0.0 | 0.0 | 0.00 | 0.00 | 0.00 | 92 | 1018.1 |
| 20260506000121 | 70 | 251 | 0.0 | 0.0 | 0.00 | 0.00 | 0.00 | 92 | 1018.0 |
| 20260506000001 | 70 | 251 | 0.0 | 0.0 | 0.00 | 0.00 | 0.00 | 92 | 1018.0 |
| 20260505234601 | 70 | 251 | 0.0 | 1.0 | 0.00 | 0.00 | 0.00 | 91 | 1017.8 |
| 20260505233101 | 70 | 251 | 0.0 | 0.0 | 0.00 | 0.00 | 0.00 | 91 | 1017.7 |
| 20260505231613 | 71 | 251 | 0.0 | 1.0 | 0.00 | 0.00 | 0.00 | 91 | 1017.6 |
| 20260505230109 | 71 | 251 | 0.0 | 1.0 | 0.00 | 0.00 | 0.00 | 91 | 1017.4 |
| 20260505230003 | 71 | 251 | 0.0 | 1.0 | 0.00 | 0.00 | 0.00 | 91 | 1017.4 |
| 20260505224600 | 71 | 251 | 0.0 | 0.0 | 0.00 | 0.00 | 0.00 | 90 | 1017.3 |
| 20260505223103 | 72 | 251 | 0.0 | 1.0 | 0.00 | 0.00 | 0.00 | 90 | 1017.2 |
| 20260505221602 | 72 | 251 | 0.0 | 2.0 | 0.00 | 0.00 | 0.00 | 90 | 1017.0 |
| 20260505220059 | 73 | 251 | 0.0 | 0.0 | 0.00 | 0.00 | 0.00 | 89 | 1017.0 |
| 20260505214558 | 73 | 251 | 0.0 | 3.0 | 0.00 | 0.00 | 0.00 | 89 | 1017.0 |
| 20260505213058 | 73 | 269 | 0.0 | 2.0 | 0.00 | 0.00 | 0.00 | 89 | 1016.9 |
| 20260505211558 | 74 | 267 | 0.0 | 2.0 | 0.00 | 0.00 | 0.00 | 88 | 1016.7 |